Powrót do katalogu

STARLINK-36544

AktywnyŁącznośćVLEO
NORAD 67517·PAYLOAD·🇺🇸 United States

Wystrzelony Jan 18, 2026 z Cape Canaveral Space Force Station

Loading…

Następne Przeloty (najbliższe 24 godziny)

TLE

ŚwieżeSource: CelesTrak SupGP

Epoka: Sep 14, 2026, 22:47 UTC

1 67517C 26012AA  26257.94979167 -.00008078  00000+0 -29255-3 0  2578
2 67517  43.0026 325.5041 0001663 266.6136 226.1410 15.27584114    14

Śledź STARLINK-36544 w czasie rzeczywistym z AllMySat

Download on the App Store